| time (UTC) | temp F | wind direction | speed MPH | gust MPH | rain 1hr in | rain 24hr in | rain mn in | humidity % | barometer mb |
| 20260505002003 | 51 | 194 | 3.0 | 6.0 | 0.00 | 0.00 | 0.00 | 82 | 1014.6 |
| 20260505001502 | 51 | 231 | 2.0 | 13.0 | 0.00 | 0.00 | 0.00 | 82 | 1014.5 |
| 20260505001004 | 51 | 300 | 4.0 | 13.0 | 0.00 | 0.00 | 0.00 | 82 | 1014.5 |
| 20260505000501 | 52 | 263 | 2.0 | 12.0 | 0.00 | 0.00 | 0.00 | 82 | 1014.5 |
| 20260505000001 | 52 | 248 | 4.0 | 12.0 | 0.00 | 0.00 | 0.00 | 81 | 1014.5 |
| 20260504235503 | 52 | 304 | 3.0 | 11.0 | 0.00 | 0.00 | 0.00 | 81 | 1014.5 |
| 20260504235001 | 52 | 221 | 4.0 | 11.0 | 0.00 | 0.00 | 0.00 | 80 | 1014.3 |
| 20260504234601 | 52 | 163 | 3.0 | 12.0 | 0.00 | 0.00 | 0.00 | 79 | 1014.3 |
| 20260504234100 | 53 | 280 | 4.0 | 12.0 | 0.00 | 0.00 | 0.00 | 79 | 1014.2 |
| 20260504233559 | 53 | 249 | 2.0 | 11.0 | 0.00 | 0.00 | 0.00 | 78 | 1014.2 |
| 20260504233111 | 53 | 233 | 3.0 | 10.0 | 0.00 | 0.00 | 0.00 | 77 | 1014.2 |
| 20260504232559 | 54 | 209 | 2.0 | 16.0 | 0.00 | 0.00 | 0.00 | 77 | 1014.0 |
| 20260504232058 | 54 | 239 | 3.0 | 11.0 | 0.00 | 0.00 | 0.00 | 76 | 1014.0 |
| 20260504231601 | 54 | 215 | 4.0 | 11.0 | 0.00 | 0.00 | 0.00 | 75 | 1014.0 |
| 20260504231059 | 55 | 224 | 4.0 | 11.0 | 0.00 | 0.00 | 0.00 | 74 | 1013.9 |
| 20260504230557 | 55 | 191 | 4.0 | 10.0 | 0.00 | 0.00 | 0.00 | 73 | 1013.9 |
| 20260504230057 | 55 | 257 | 2.0 | 11.0 | 0.00 | 0.00 | 0.00 | 73 | 1013.8 |
| 20260504225557 | 56 | 184 | 3.0 | 12.0 | 0.00 | 0.00 | 0.00 | 72 | 1013.8 |
| 20260504225056 | 56 | 164 | 5.0 | 12.0 | 0.00 | 0.00 | 0.00 | 71 | 1013.9 |
| 20260504224602 | 56 | 244 | 3.0 | 13.0 | 0.00 | 0.00 | 0.00 | 71 | 1013.9 |
| 20260504224056 | 56 | 249 | 4.0 | 13.0 | 0.00 | 0.00 | 0.00 | 71 | 1013.8 |
| 20260504223555 | 56 | 209 | 3.0 | 13.0 | 0.00 | 0.00 | 0.00 | 70 | 1013.9 |
| 20260504223126 | 57 | 192 | 4.0 | 11.0 | 0.00 | 0.00 | 0.00 | 70 | 1013.6 |
| 20260504222555 | 57 | 138 | 3.0 | 15.0 | 0.00 | 0.00 | 0.00 | 69 | 1013.7 |
| 20260504222055 | 57 | 227 | 7.0 | 15.0 | 0.00 | 0.00 | 0.00 | 68 | 1013.8 |
| 20260504221555 | 58 | 197 | 4.0 | 14.0 | 0.00 | 0.00 | 0.00 | 66 | 1013.9 |
| 20260504221058 | 58 | 108 | 4.0 | 11.0 | 0.00 | 0.00 | 0.00 | 65 | 1013.8 |
| 20260504220554 | 59 | 250 | 3.0 | 13.0 | 0.00 | 0.00 | 0.00 | 64 | 1013.8 |
| 20260504220056 | 59 | 313 | 2.0 | 10.0 | 0.00 | 0.00 | 0.00 | 63 | 1013.7 |
| 20260504215554 | 59 | 189 | 6.0 | 12.0 | 0.00 | 0.00 | 0.00 | 62 | 1013.7 |
| 20260504215054 | 60 | 265 | 2.0 | 9.0 | 0.00 | 0.00 | 0.00 | 61 | 1013.7 |
| 20260504214553 | 60 | 273 | 1.0 | 15.0 | 0.00 | 0.00 | 0.00 | 60 | 1013.7 |
| 20260504214053 | 60 | 269 | 4.0 | 15.0 | 0.00 | 0.00 | 0.00 | 59 | 1013.7 |
| 20260504213552 | 60 | 234 | 5.0 | 14.0 | 0.00 | 0.00 | 0.00 | 59 | 1013.7 |
| 20260504213101 | 61 | 150 | 2.0 | 11.0 | 0.00 | 0.00 | 0.00 | 58 | 1013.6 |
| 20260504212653 | 61 | 165 | 5.0 | 11.0 | 0.00 | 0.00 | 0.00 | 58 | 1013.7 |
| 20260504212052 | 61 | 305 | 4.0 | 16.0 | 0.00 | 0.00 | 0.00 | 58 | 1013.6 |
| 20260504211552 | 61 | 175 | 5.0 | 16.0 | 0.00 | 0.00 | 0.00 | 57 | 1013.6 |
| 20260504211051 | 61 | 165 | 5.0 | 11.0 | 0.00 | 0.00 | 0.00 | 58 | 1013.6 |
| 20260504210551 | 61 | 225 | 5.0 | 11.0 | 0.00 | 0.00 | 0.00 | 58 | 1013.6 |
| 20260504210057 | 61 | 192 | 3.0 | 14.0 | 0.00 | 0.00 | 0.00 | 58 | 1013.7 |
| 20260504205554 | 61 | 242 | 6.0 | 13.0 | 0.00 | 0.00 | 0.00 | 57 | 1013.6 |
| 20260504205050 | 61 | 250 | 4.0 | 18.0 | 0.00 | 0.00 | 0.00 | 57 | 1013.7 |
| 20260504204550 | 61 | 153 | 6.0 | 18.0 | 0.00 | 0.00 | 0.00 | 57 | 1013.7 |
| 20260504204050 | 61 | 181 | 3.0 | 15.0 | 0.00 | 0.00 | 0.00 | 57 | 1013.6 |
| 20260504203550 | 62 | 200 | 5.0 | 15.0 | 0.00 | 0.00 | 0.00 | 56 | 1013.6 |
| 20260504203105 | 62 | 159 | 7.0 | 14.0 | 0.00 | 0.00 | 0.00 | 55 | 1013.5 |
| 20260504202550 | 62 | 258 | 5.0 | 14.0 | 0.00 | 0.00 | 0.00 | 55 | 1013.4 |
| 20260504202049 | 62 | 234 | 2.0 | 17.0 | 0.00 | 0.00 | 0.00 | 56 | 1013.4 |
| 20260504201554 | 62 | 298 | 6.0 | 17.0 | 0.00 | 0.00 | 0.00 | 56 | 1013.4 |
| 20260504201048 | 63 | 201 | 5.0 | 15.0 | 0.00 | 0.00 | 0.00 | 55 | 1013.5 |
| 20260504200547 | 63 | 205 | 6.0 | 14.0 | 0.00 | 0.00 | 0.00 | 55 | 1013.5 |
| 20260504200047 | 63 | 135 | 3.0 | 13.0 | 0.00 | 0.00 | 0.00 | 55 | 1013.6 |
| 20260504195547 | 63 | 193 | 6.0 | 14.0 | 0.00 | 0.00 | 0.00 | 55 | 1013.6 |
| 20260504195046 | 63 | 219 | 7.0 | 14.0 | 0.00 | 0.00 | 0.00 | 55 | 1013.5 |
| 20260504194546 | 63 | 249 | 5.0 | 16.0 | 0.00 | 0.00 | 0.00 | 55 | 1013.6 |
| 20260504194146 | 62 | 235 | 3.0 | 16.0 | 0.00 | 0.00 | 0.00 | 57 | 1013.6 |
| 20260504193549 | 62 | 223 | 3.0 | 14.0 | 0.00 | 0.00 | 0.00 | 58 | 1013.5 |
| 20260504193046 | 62 | 210 | 6.0 | 14.0 | 0.00 | 0.00 | 0.00 | 56 | 1013.6 |
| 20260504192544 | 62 | 193 | 4.0 | 16.0 | 0.00 | 0.00 | 0.00 | 57 | 1013.7 |
| 20260504192044 | 62 | 232 | 6.0 | 18.0 | 0.00 | 0.00 | 0.00 | 56 | 1013.5 |
| 20260504191554 | 63 | 220 | 6.0 | 19.0 | 0.00 | 0.00 | 0.00 | 54 | 1013.7 |
| 20260504191044 | 62 | 206 | 6.0 | 19.0 | 0.00 | 0.00 | 0.00 | 53 | 1013.7 |
| 20260504190543 | 62 | 213 | 4.0 | 16.0 | 0.00 | 0.00 | 0.00 | 53 | 1013.8 |
| 20260504190046 | 63 | 284 | 6.0 | 16.0 | 0.00 | 0.00 | 0.00 | 52 | 1013.8 |
| 20260504185542 | 63 | 175 | 4.0 | 17.0 | 0.00 | 0.00 | 0.00 | 54 | 1013.8 |
| 20260504185042 | 63 | 232 | 4.0 | 14.0 | 0.00 | 0.00 | 0.00 | 53 | 1013.8 |
| 20260504184541 | 63 | 296 | 5.0 | 19.0 | 0.00 | 0.00 | 0.00 | 54 | 1013.9 |
| 20260504184041 | 62 | 192 | 9.0 | 19.0 | 0.00 | 0.00 | 0.00 | 52 | 1013.7 |
| 20260504183540 | 63 | 338 | 5.0 | 15.0 | 0.00 | 0.00 | 0.00 | 54 | 1013.9 |
| 20260504183039 | 62 | 82 | 5.0 | 16.0 | 0.00 | 0.00 | 0.00 | 55 | 1014.1 |
| 20260504182543 | 63 | 279 | 5.0 | 16.0 | 0.00 | 0.00 | 0.00 | 53 | 1014.1 |
| 20260504182039 | 64 | 235 | 6.0 | 16.0 | 0.00 | 0.00 | 0.00 | 51 | 1014.3 |
| 20260504181544 | 64 | 173 | 6.0 | 15.0 | 0.00 | 0.00 | 0.00 | 51 | 1014.1 |
| 20260504181038 | 64 | 232 | 3.0 | 11.0 | 0.00 | 0.00 | 0.00 | 51 | 1014.3 |
| 20260504180537 | 63 | 250 | 4.0 | 18.0 | 0.00 | 0.00 | 0.00 | 51 | 1014.3 |
| 20260504180037 | 63 | 301 | 8.0 | 18.0 | 0.00 | 0.00 | 0.00 | 51 | 1014.4 |
| 20260504175537 | 63 | 257 | 8.0 | 18.0 | 0.00 | 0.00 | 0.00 | 51 | 1014.3 |
| 20260504175037 | 63 | 238 | 5.0 | 15.0 | 0.00 | 0.00 | 0.00 | 51 | 1014.4 |
| 20260504174536 | 63 | 244 | 6.0 | 15.0 | 0.00 | 0.00 | 0.00 | 51 | 1014.4 |
| 20260504174036 | 62 | 186 | 3.0 | 15.0 | 0.00 | 0.00 | 0.00 | 53 | 1014.4 |
| 20260504173537 | 63 | 249 | 6.0 | 15.0 | 0.00 | 0.00 | 0.00 | 49 | 1014.5 |
| 20260504173036 | 63 | 203 | 4.0 | 12.0 | 0.00 | 0.00 | 0.00 | 49 | 1014.5 |
| 20260504172538 | 63 | 216 | 4.0 | 18.0 | 0.00 | 0.00 | 0.00 | 49 | 1014.5 |
| 20260504172035 | 63 | 245 | 6.0 | 18.0 | 0.00 | 0.00 | 0.00 | 46 | 1014.4 |
| 20260504171537 | 64 | 217 | 7.0 | 15.0 | 0.00 | 0.00 | 0.00 | 49 | 1014.5 |
| 20260504171035 | 63 | 239 | 5.0 | 17.0 | 0.00 | 0.00 | 0.00 | 46 | 1014.4 |
| 20260504170534 | 63 | 188 | 4.0 | 19.0 | 0.00 | 0.00 | 0.00 | 46 | 1014.4 |
| 20260504151023 | 62 | 274 | 4.0 | 13.0 | 0.00 | 0.00 | 0.00 | 47 | 1015.4 |
| 20260504150524 | 62 | 296 | 5.0 | 12.0 | 0.00 | 0.00 | 0.00 | 45 | 1015.6 |
| 20260504141018 | 60 | 260 | 10.0 | 20.0 | 0.00 | 0.00 | 0.00 | 42 | 1015.8 |
| 20260504140516 | 60 | 219 | 7.0 | 20.0 | 0.00 | 0.00 | 0.00 | 46 | 1015.8 |
| 20260504130506 | 57 | 265 | 5.0 | 13.0 | 0.00 | 0.00 | 0.00 | 52 | 1016.1 |
| 20260504110544 | 51 | 219 | 4.0 | 8.0 | 0.00 | 0.00 | 0.00 | 71 | 1016.3 |
| 20260504100527 | 44 | 252 | 1.0 | 4.0 | 0.00 | 0.00 | 0.00 | 84 | 1015.9 |
| 20260504081514 | 37 | 227 | 0.0 | 2.0 | 0.00 | 0.00 | 0.00 | 91 | 1015.5 |
| 20260504081013 | 37 | 227 | 0.0 | 2.0 | 0.00 | 0.00 | 0.00 | 91 | 1015.6 |
| 20260504080513 | 37 | 227 | 0.0 | 2.0 | 0.00 | 0.00 | 0.00 | 91 | 1015.6 |
| 20260504050554 | 37 | 288 | 0.0 | 2.0 | 0.00 | 0.00 | 0.00 | 85 | 1014.9 |
| 20260504045552 | 37 | 288 | 0.0 | 2.0 | 0.00 | 0.00 | 0.00 | 85 | 1015.1 |
| 20260504045051 | 37 | 288 | 0.0 | 2.0 | 0.00 | 0.00 | 0.00 | 85 | 1015.1 |
| 20260504044601 | 37 | 288 | 0.0 | 2.0 | 0.00 | 0.00 | 0.00 | 85 | 1015.1 |
| 20260504044051 | 37 | 288 | 0.0 | 2.0 | 0.00 | 0.00 | 0.00 | 85 | 1015.1 |
| 20260504043549 | 38 | 288 | 0.0 | 2.0 | 0.00 | 0.00 | 0.00 | 84 | 1015.1 |
| 20260504043054 | 38 | 288 | 0.0 | 2.0 | 0.00 | 0.00 | 0.00 | 84 | 1015.0 |
| 20260504042546 | 38 | 288 | 0.0 | 2.0 | 0.00 | 0.00 | 0.00 | 83 | 1015.0 |
| 20260504042046 | 38 | 288 | 0.0 | 2.0 | 0.00 | 0.00 | 0.00 | 82 | 1015.0 |
| 20260504041546 | 38 | 288 | 0.0 | 2.0 | 0.00 | 0.00 | 0.00 | 81 | 1015.0 |
| 20260504041046 | 39 | 288 | 0.0 | 2.0 | 0.00 | 0.00 | 0.00 | 80 | 1015.0 |
| 20260504040543 | 39 | 288 | 0.0 | 2.0 | 0.00 | 0.00 | 0.00 | 80 | 1014.9 |
| 20260504040059 | 39 | 288 | 0.0 | 2.0 | 0.00 | 0.00 | 0.00 | 79 | 1014.8 |
| 20260504035540 | 40 | 288 | 0.0 | 2.0 | 0.00 | 0.00 | 0.00 | 78 | 1014.8 |
| 20260504035038 | 40 | 288 | 0.0 | 2.0 | 0.00 | 0.00 | 0.00 | 77 | 1014.8 |
| 20260504034555 | 41 | 288 | 0.0 | 2.0 | 0.00 | 0.00 | 0.00 | 77 | 1014.9 |
| 20260504034040 | 41 | 288 | 0.0 | 2.0 | 0.00 | 0.00 | 0.00 | 77 | 1014.8 |
| 20260504033539 | 41 | 288 | 0.0 | 0.0 | 0.00 | 0.00 | 0.00 | 76 | 1014.8 |
| 20260504033037 | 42 | 288 | 0.0 | 1.0 | 0.00 | 0.00 | 0.00 | 75 | 1014.7 |
| 20260504032537 | 42 | 288 | 0.0 | 1.0 | 0.00 | 0.00 | 0.00 | 75 | 1014.8 |
| 20260504032040 | 42 | 288 | 0.0 | 2.0 | 0.00 | 0.00 | 0.00 | 74 | 1014.7 |
| 20260504031536 | 43 | 288 | 0.0 | 2.0 | 0.00 | 0.00 | 0.00 | 73 | 1014.7 |
| 20260504031035 | 43 | 288 | 0.0 | 1.0 | 0.00 | 0.00 | 0.00 | 74 | 1014.7 |
| 20260504030535 | 42 | 288 | 0.0 | 2.0 | 0.00 | 0.00 | 0.00 | 72 | 1014.6 |
| 20260504030037 | 42 | 288 | 0.0 | 2.0 | 0.00 | 0.00 | 0.00 | 71 | 1014.6 |
| 20260504025534 | 42 | 321 | 0.0 | 1.0 | 0.00 | 0.00 | 0.00 | 69 | 1014.5 |
| 20260504025034 | 42 | 321 | 1.0 | 1.0 | 0.00 | 0.00 | 0.00 | 69 | 1014.5 |
| 20260504024536 | 41 | 321 | 0.0 | 1.0 | 0.00 | 0.00 | 0.00 | 69 | 1014.5 |
| 20260504024035 | 41 | 321 | 0.0 | 2.0 | 0.00 | 0.00 | 0.00 | 69 | 1014.6 |
| 20260504023535 | 41 | 321 | 0.0 | 2.0 | 0.00 | 0.00 | 0.00 | 67 | 1014.6 |
| 20260504023034 | 41 | 321 | 0.0 | 2.0 | 0.00 | 0.00 | 0.00 | 69 | 1014.6 |
| 20260504022534 | 41 | 321 | 0.0 | 2.0 | 0.00 | 0.00 | 0.00 | 68 | 1014.6 |
| 20260504022038 | 41 | 321 | 0.0 | 0.0 | 0.00 | 0.00 | 0.00 | 68 | 1014.6 |
| 20260504021535 | 41 | 321 | 0.0 | 0.0 | 0.00 | 0.00 | 0.00 | 68 | 1014.5 |
| 20260504021032 | 41 | 321 | 0.0 | 0.0 | 0.00 | 0.00 | 0.00 | 68 | 1014.6 |
| 20260504020532 | 41 | 321 | 0.0 | 0.0 | 0.00 | 0.00 | 0.00 | 65 | 1014.5 |
| 20260504020031 | 41 | 321 | 0.0 | 0.0 | 0.00 | 0.00 | 0.00 | 65 | 1014.5 |
| 20260504015531 | 41 | 321 | 0.0 | 0.0 | 0.00 | 0.00 | 0.00 | 64 | 1014.5 |
| 20260504015030 | 42 | 321 | 0.0 | 0.0 | 0.00 | 0.00 | 0.00 | 64 | 1014.4 |
| 20260504014530 | 42 | 321 | 0.0 | 0.0 | 0.00 | 0.00 | 0.00 | 64 | 1014.4 |
| 20260504014028 | 42 | 321 | 0.0 | 0.0 | 0.00 | 0.00 | 0.00 | 63 | 1014.3 |
| 20260504013527 | 42 | 321 | 0.0 | 0.0 | 0.00 | 0.00 | 0.00 | 62 | 1014.2 |
| 20260504013033 | 43 | 321 | 0.0 | 0.0 | 0.00 | 0.00 | 0.00 | 62 | 1014.2 |
| 20260504012530 | 43 | 321 | 0.0 | 0.0 | 0.00 | 0.00 | 0.00 | 60 | 1014.2 |
| 20260504012025 | 43 | 321 | 0.0 | 0.0 | 0.00 | 0.00 | 0.00 | 60 | 1014.0 |
| 20260504011527 | 44 | 321 | 0.0 | 0.0 | 0.00 | 0.00 | 0.00 | 58 | 1014.0 |
| 20260504011024 | 44 | 321 | 0.0 | 0.0 | 0.00 | 0.00 | 0.00 | 58 | 1013.8 |
| 20260504010523 | 44 | 321 | 0.0 | 0.0 | 0.00 | 0.00 | 0.00 | 57 | 1013.8 |
| 20260504010023 | 44 | 321 | 0.0 | 0.0 | 0.00 | 0.00 | 0.00 | 56 | 1013.7 |
| 20260504005523 | 45 | 321 | 0.0 | 2.0 | 0.00 | 0.00 | 0.00 | 57 | 1013.6 |
| 20260504005022 | 45 | 321 | 0.0 | 2.0 | 0.00 | 0.00 | 0.00 | 55 | 1013.5 |
| 20260504004523 | 45 | 321 | 0.0 | 2.0 | 0.00 | 0.00 | 0.00 | 54 | 1013.5 |
| 20260504004022 | 46 | 321 | 0.0 | 2.0 | 0.00 | 0.00 | 0.00 | 55 | 1013.5 |
| 20260504003522 | 46 | 321 | 0.0 | 2.0 | 0.00 | 0.00 | 0.00 | 53 | 1013.5 |
| 20260504003025 | 46 | 321 | 1.0 | 2.0 | 0.00 | 0.00 | 0.00 | 53 | 1013.4 |
| 20260504002522 | 47 | 321 | 0.0 | 2.0 | 0.00 | 0.00 | 0.00 | 52 | 1013.4 |